Regional Weather Roundup
Issued by NWS

Home | Current Version | Previous Version | Graphics & Text | Print | Product List | Glossary On
Versions: 1 2 3 4 5 6 7 8 9 10 11 12 13 14 15 16 17 18 19 20 21 22 23 24 25 26 27 28 29 30 31 32 33 34 35 36 37 38 39 40 41 42 43 44 45 46 47 48 49 50
000
ASUS43 KLMK 280810
RWRKY
KENTUCKY REGIONAL WEATHER ROUNDUP
NATIONAL WEATHER SERVICE LOUISVILLE KY
400 AM EDT FRI AUG 28 2015

NOTE "FAIR" INDICATES FEW OR NO CLOUDS BELOW 12,000 FEET
WITH NO SIGNIFICANT WEATHER AND/OR OBSTRUCTIONS TO VISIBILITY.

KYZ001>023-026-027-061>063-070>075-280900-
WESTERN AND SOUTH CENTRAL KENTUCKY

CITY           SKY/WX    TMP DP  RH WIND       PRES   REMARKS
PADUCAH        CLEAR     57  54  89 CALM      30.08R
HENDERSON      CLEAR     55  52  88 CALM      30.10R
OWENSBORO      CLEAR     61  56  83 CALM      30.11R
HOPKINSVILLE   CLEAR     59  55  86 NE5       30.08S
BOWLING GREEN  CLEAR     58  54  86 CALM      30.10S
GLASGOW        CLEAR     56  56 100 CALM      30.10F
$$

KYZ024-025-028>034-038-045-046-053-280900-
NORTH CENTRAL KENTUCKY

CITY           SKY/WX    TMP DP  RH WIND       PRES   REMARKS
LOUISVILLE/SDF CLEAR     64  56  75 CALM      30.12S
LOUISVILLE/LOU CLEAR     62  55  77 CALM      30.13R
FORT KNOX      CLEAR     57  54  90 NE2       30.10S
$$

KYZ035>037-039>044-047>052-055>060-089>105-280900-
NORTHEAST KENTUCKY

CITY           SKY/WX    TMP DP  RH WIND       PRES   REMARKS
LEXINGTON      CLEAR     55  51  86 CALM      30.14R
COVINGTON      PTCLDY    58  55  90 CALM      30.14S
FRANKFORT      CLEAR     55  52  89 N3        30.13R
$$

KYZ054-064>069-076>088-106>120-280900-
SOUTHEAST KENTUCKY

CITY           SKY/WX    TMP DP  RH WIND       PRES   REMARKS
JACKSON        CLEAR     60  55  83 CALM      30.13F
LONDON         CLEAR     59  53  80 CALM      30.12F
SOMERSET       CLEAR     55  55 100 CALM      30.13S
MIDDLESBORO    CLEAR     58  58  98 CALM      30.13S
MONTICELLO     SUNNY     54  54 100 CALM      30.14S
$$



USA.gov is the U.S. government's official web portal to all federal, state and local government web resources and services.